Weather History for KHNB - April, 2012

Change the Weather History Date:

Thursday, April 5, 2012

  Actual Average Record
Temperature  
Mean Temperature 53 °F -  
Max Temperature 60 °F 61 °F 77 °F (2001)
Min Temperature 46 °F 41 °F 28 °F (2002)
Degree Days  
Heating Degree Days 12    
Growing Degree Days 3 (Base 50)    
Moisture  
Dew Point 43 °F    
Average Humidity 69    
Maximum Humidity 88    
Minimum Humidity 42    
Precipitation  
Precipitation 0.17 in - - ()
Sea Level Pressure  
Sea Level Pressure 29.81 in    
Wind  
Wind Speed 13 mph (ENE)    
Max Wind Speed 22 mph    
Max Gust Speed 29 mph    
Visibility 10 miles    
Events Thunderstorm    
Averages and records for this station are not official NWS values.
T = Trace of Precipitation, MM = Missing Value Source: NWS Daily Summary

Daily Weather History Graph

Daily Weather History Graph

Search for Another Location

Airport or City:

Trip Planner

Search our weather history database for the weather conditions in past years. The results will help you decide how hot, cold, wet, or windy it might be!

Date:

Astronomy

Apr. 05, 2012 Rise Set
Actual Time 7:26 AM EDT 8:15 PM EDT
Civil Twilight 6:59 AM EDT 8:42 PM EDT
Nautical Twilight 6:27 AM EDT 9:13 PM EDT
Astronomical Twilight 5:54 AM EDT 9:46 PM EDT
Moon 7:20 PM EDT (4/5) 6:21 AM EDT (4/5)
Length of Visible Light 13h 42m
Length of Day
12h 49m
Waxing Gibbous, 98% of the Moon is Illuminated
Apr 5
Waxing Gibbous
Apr 6
Full
Apr 13
Last Quarter
Apr 21
New
Apr 29
First Quarter

Hourly Weather History & Observations

Time (EDT) Temp. Windchill Dew Point Humidity Pressure Visibility Wind Dir Wind Speed Gust Speed Precip Events Conditions
12:15 AM 60.8 °F - 55.4 °F 82% 29.77 in 10.0 mi East 9.2 mph - 0.01 in   Scattered Clouds
12:35 AM 59.0 °F - 53.6 °F 82% 29.76 in 10.0 mi East 15.0 mph 20.7 mph 0.01 in   Scattered Clouds
12:55 AM 57.2 °F - 53.6 °F 88% 29.75 in 10.0 mi East 15.0 mph 19.6 mph 0.01 in   Clear
1:16 AM 57.2 °F - 50.0 °F 77% 29.76 in 6.0 mi East 13.8 mph 20.7 mph N/A   Mostly Cloudy
1:35 AM 55.4 °F - 50.0 °F 82% 29.75 in 10.0 mi East 16.1 mph 21.9 mph 0.02 in   Mostly Cloudy
1:55 AM 55.4 °F - 48.2 °F 77% 29.75 in 10.0 mi East 11.5 mph 23.0 mph 0.02 in   Scattered Clouds
2:35 AM 55.4 °F - 48.2 °F 77% 29.75 in 10.0 mi ENE 8.1 mph - N/A   Mostly Cloudy
2:55 AM 55.4 °F - 48.2 °F 77% 29.74 in 10.0 mi ENE 9.2 mph - N/A   Mostly Cloudy
3:15 AM 55.4 °F - 48.2 °F 77% 29.74 in 10.0 mi East 5.8 mph - N/A   Mostly Cloudy
3:55 AM 55.4 °F - 48.2 °F 77% 29.75 in 10.0 mi East 8.1 mph - 0.02 in   Mostly Cloudy
4:15 AM 53.6 °F - 48.2 °F 82% 29.75 in 10.0 mi ESE 8.1 mph - N/A   Mostly Cloudy
4:35 AM 53.6 °F - 48.2 °F 82% 29.76 in 10.0 mi ENE 5.8 mph - N/A   Overcast
4:55 AM 53.6 °F - 50.0 °F 88% 29.77 in 10.0 mi NNE 12.7 mph - N/A   Overcast
5:15 AM 51.8 °F - 46.4 °F 82% 29.79 in 10.0 mi NNE 8.1 mph - N/A   Overcast
5:35 AM 51.8 °F - 44.6 °F 76% 29.79 in 10.0 mi NE 15.0 mph 20.7 mph N/A   Overcast
6:15 AM 50.0 °F - 42.8 °F 76% 29.81 in 10.0 mi NNE 16.1 mph - N/A   Overcast
6:35 AM 48.2 °F - 42.8 °F 82% 29.82 in 10.0 mi NE 16.1 mph - N/A   Overcast
6:55 AM 48.2 °F - 41.0 °F 76% 29.81 in 10.0 mi NE 18.4 mph - N/A   Overcast
7:15 AM 46.4 °F 39.0 °F 41.0 °F 81% 29.81 in 10.0 mi ENE 19.6 mph 26.5 mph N/A   Overcast
7:35 AM 46.4 °F 39.2 °F 41.0 °F 81% 29.82 in 10.0 mi NE 18.4 mph 23.0 mph N/A   Overcast
7:55 AM 46.4 °F 39.2 °F 41.0 °F 81% 29.82 in 10.0 mi ENE 18.4 mph 25.3 mph N/A   Overcast
8:15 AM 46.4 °F 38.5 °F 39.2 °F 76% 29.83 in 10.0 mi ENE 21.9 mph 28.8 mph N/A   Overcast
8:35 AM 46.4 °F 40.1 °F 39.2 °F 76% 29.83 in 10.0 mi East 15.0 mph 26.5 mph N/A   Overcast
8:55 AM 48.2 °F - 39.2 °F 71% 29.83 in 10.0 mi East 16.1 mph - N/A   Overcast
9:15 AM 46.4 °F 40.7 °F 39.2 °F 76% 29.83 in 10.0 mi East 12.7 mph 20.7 mph N/A Thunderstorm Overcast
9:35 AM 46.4 °F 41.9 °F 39.2 °F 76% 29.84 in 8.0 mi East 9.2 mph - 0.05 in   Mostly Cloudy
9:55 AM 46.4 °F 41.9 °F 41.0 °F 81% 29.83 in 6.0 mi East 9.2 mph - 0.10 in   Mostly Cloudy
10:15 AM 46.4 °F 41.9 °F 42.8 °F 87% 29.83 in 10.0 mi East 9.2 mph - 0.01 in   Mostly Cloudy
10:35 AM 46.4 °F 42.9 °F 42.8 °F 87% 29.85 in 10.0 mi ENE 6.9 mph - 0.02 in   Mostly Cloudy
10:55 AM 46.4 °F 40.7 °F 42.8 °F 87% 29.84 in 10.0 mi East 12.7 mph - 0.02 in   Partly Cloudy
11:15 AM 46.4 °F 40.7 °F 41.0 °F 81% 29.85 in 10.0 mi East 12.7 mph - N/A   Mostly Cloudy
11:35 AM 46.4 °F 41.1 °F 41.0 °F 81% 29.83 in 10.0 mi East 11.5 mph - N/A   Clear
11:55 AM 48.2 °F - 42.8 °F 82% 29.85 in 10.0 mi ENE 9.2 mph - N/A   Clear
12:15 PM 53.6 °F - 44.6 °F 72% 29.85 in 10.0 mi NE 3.5 mph - N/A   Clear
12:35 PM 55.4 °F - 44.6 °F 67% 29.84 in 10.0 mi NE 12.7 mph - N/A   Clear
12:55 PM 55.4 °F - 42.8 °F 63% 29.85 in 10.0 mi NE 12.7 mph - N/A   Clear
1:15 PM 57.2 °F - 42.8 °F 59% 29.85 in 10.0 mi NNE 11.5 mph 17.3 mph N/A   Clear
1:35 PM 57.2 °F - 42.8 °F 59% 29.84 in 10.0 mi NE 13.8 mph 17.3 mph N/A   Clear
1:55 PM 60.8 °F - 44.6 °F 55% 29.82 in 10.0 mi NNE 16.1 mph 20.7 mph N/A   Clear
2:15 PM 59.0 °F - 42.8 °F 55% 29.81 in 10.0 mi ENE 11.5 mph 18.4 mph N/A   Clear
2:35 PM 59.0 °F - 42.8 °F 55% 29.81 in 10.0 mi ENE 13.8 mph 19.6 mph N/A   Clear
2:55 PM 60.8 °F - 42.8 °F 52% 29.80 in 10.0 mi NE 11.5 mph - N/A   Mostly Cloudy
3:15 PM 59.0 °F - 39.2 °F 48% 29.80 in 10.0 mi NE 19.6 mph 23.0 mph N/A   Overcast
3:35 PM 60.8 °F - 42.8 °F 52% 29.80 in 10.0 mi NE 16.1 mph 21.9 mph N/A   Scattered Clouds
3:55 PM 60.8 °F - 41.0 °F 48% 29.80 in 10.0 mi NE 15.0 mph 24.2 mph N/A   Scattered Clouds
4:15 PM 60.8 °F - 41.0 °F 48% 29.79 in 10.0 mi NE 16.1 mph 23.0 mph N/A   Partly Cloudy
4:35 PM 60.8 °F - 39.2 °F 45% 29.80 in 10.0 mi NE 17.3 mph 23.0 mph N/A   Mostly Cloudy
4:55 PM 60.8 °F - 37.4 °F 42% 29.82 in 10.0 mi NE 17.3 mph 24.2 mph N/A   Scattered Clouds
5:15 PM 60.8 °F - 39.2 °F 45% 29.82 in 10.0 mi NE 19.6 mph 24.2 mph N/A   Clear
5:35 PM 59.0 °F - 37.4 °F 45% 29.82 in 10.0 mi NE 17.3 mph 25.3 mph N/A   Partly Cloudy
5:55 PM 59.0 °F - 37.4 °F 45% 29.83 in 10.0 mi NE 19.6 mph 25.3 mph N/A   Clear
6:15 PM 59.0 °F - 39.2 °F 48% 29.84 in 10.0 mi NE 16.1 mph 21.9 mph N/A   Clear
6:35 PM 59.0 °F - 35.6 °F 42% 29.84 in 10.0 mi NE 17.3 mph 25.3 mph N/A   Clear
6:55 PM 57.2 °F - 35.6 °F 44% 29.84 in 10.0 mi NE 17.3 mph 21.9 mph N/A   Clear
7:35 PM 55.4 °F - 35.6 °F 47% 29.86 in 10.0 mi NE 11.5 mph 17.3 mph N/A   Clear
7:55 PM 55.4 °F - 33.8 °F 44% 29.87 in 10.0 mi NE 10.4 mph - N/A   Clear
8:15 PM 53.6 °F - 35.6 °F 51% 29.87 in 10.0 mi NE 10.4 mph - N/A   Clear
8:35 PM 51.8 °F - 35.6 °F 54% 29.89 in 10.0 mi NE 6.9 mph - N/A   Clear
8:55 PM 51.8 °F - 35.6 °F 54% 29.90 in 10.0 mi NE 11.5 mph - N/A   Clear
9:15 PM 53.6 °F - 33.8 °F 47% 29.91 in 10.0 mi NE 8.1 mph - N/A   Clear
9:35 PM 51.8 °F - 35.6 °F 54% 29.92 in 10.0 mi NE 8.1 mph - N/A   Clear
9:55 PM 51.8 °F - 33.8 °F 50% 29.93 in 10.0 mi NE 12.7 mph 17.3 mph N/A   Clear
10:15 PM 51.8 °F - 33.8 °F 50% 29.95 in 10.0 mi NE 8.1 mph - N/A   Clear
10:35 PM 50.0 °F - 33.8 °F 54% 29.95 in 10.0 mi NE 9.2 mph - N/A   Clear
10:55 PM 48.2 °F - 33.8 °F 58% 29.96 in 10.0 mi NNE 8.1 mph - N/A   Clear
11:15 PM 48.2 °F - 33.8 °F 58% 29.97 in 10.0 mi NE 10.4 mph - N/A   Clear
11:35 PM 48.2 °F - 33.8 °F 58% 29.97 in 10.0 mi NE 12.7 mph 18.4 mph N/A   Clear
11:55 PM 48.2 °F - 33.8 °F 58% 29.98 in 10.0 mi NE 12.7 mph - N/A   Clear